Wind_Speed
19 18 17 17 16 15 14 13 12 10 9 8 7 6 6 5 5 5 5 5 7 8 8 9 10 11 12 13 15 16 17 16 16 16 16 17 18 20 20 21 21 22
22 21 19 18 17 17 15 14 13 11 10 9 9 9 8 8 8 8 8 9 10 10 11 11 11 12 12 14 16 17 17 18 18 17 17 18 19 20 21 22 23 24
24 22 21 19 18 18 17 15 14 12 12 11 11 11 11 11 11 11 11 12 12 12 13 13 13 13 14 15 16 17 18 19 19 19 19 19 20 21 22 23 25 25
25 23 22 21 20 19 17 16 15 14 14 14 14 14 13 13 13 14 14 14 15 14 14 14 15 15 15 16 17 17 18 19 21 21 22 22 22 23 23 24 26 27
26 24 23 23 22 20 19 18 17 17 17 17 17 16 15 15 15 16 16 16 16 16 16 16 16 16 16 17 18 18 19 20 21 23 24 24 24 24 25 26 27 28
27 26 25 24 23 22 22 21 21 21 20 20 19 18 18 18 18 18 18 18 18 18 18 18 17 18 18 18 19 20 21 21 22 24 25 26 27 26 26 27 28 30
30 28 27 26 25 25 25 24 23 22 22 21 21 20 20 20 20 20 20 20 20 20 20 19 19 19 20 20 21 22 22 23 24 25 26 27 28 28 28 29 30 31
32 31 30 29 28 28 26 25 24 23 23 22 22 22 22 22 22 21 22 22 22 22 22 21 21 22 22 23 23 23 24 25 26 26 27 27 28 29 30 31 32 33
35 33 31 30 29 27 26 25 24 24 24 24 23 24 24 24 23 23 23 23 24 24 23 23 23 24 24 24 24 25 26 27 28 28 28 28 28 29 31 33 34 35
36 34 32 30 28 27 26 25 25 25 25 25 25 25 24 24 24 24 24 24 25 25 25 25 24 25 26 25 26 27 28 29 30 30 29 29 30 31 33 34 35 36
36 35 32 30 29 28 27 26 26 26 26 26 26 25 25 25 25 25 26 26 26 25 25 26 26 26 26 27 27 28 29 30 31 32 32 31 33 34 35 36 37 37
36 35 33 31 30 28 27 27 27 28 28 27 27 27 27 27 27 27 27 27 27 26 26 26 27 27 27 28 29 30 31 32 33 34 35 35 36 37 38 38 39 40
36 34 32 31 30 28 28 28 29 29 28 28 28 28 28 28 28 28 28 27 27 27 27 27 28 28 29 29 31 32 33 34 35 36 37 38 38 39 40 41 42 43
35 34 33 32 30 29 29 29 30 29 29 28 28 29 30 30 29 29 29 28 28 28 29 29 29 30 31 31 32 33 34 35 36 37 39 40 41 41 42 44 45 46
37 36 34 33 32 31 31 31 31 30 30 29 29 30 30 31 31 30 29 29 29 29 29 30 31 31 32 32 33 34 36 37 38 39 41 42 43 44 45 46 48 49
39 38 36 35 33 33 32 32 32 31 31 31 30 30 30 31 32 31 30 29 29 30 30 31 32 32 33 34 35 36 37 39 40 41 42 44 45 46 48 50 51 53
40 39 38 36 35 34 34 34 33 33 33 32 31 30 30 31 32 32 31 30 30 31 32 33 34 34 35 36 36 37 39 40 42 43 45 47 48 49 51 52 54 56
41 39 38 37 36 35 35 34 34 35 35 34 33 32 31 32 32 32 32 33 33 33 34 35 35 36 36 37 38 39 40 42 45 47 48 50 52 53 54 55 56 57
41 39 39 38 37 36 35 35 36 36 36 35 34 33 34 33 33 33 34 35 36 35 35 36 37 38 38 39 40 41 43 46 48 50 52 53 55 56 57 57 56 55
41 40 39 38 37 37 36 36 37 37 36 36 36 35 36 35 35 35 36 36 38 38 38 38 39 40 40 41 43 44 47 49 52 53 55 56 57 56 55 54 51 49
41 41 40 39 38 38 37 38 38 38 37 37 37 36 36 36 36 37 37 38 39 41 41 41 41 42 44 45 47 48 50 52 54 55 56 56 55 52 50 47 45 44
41 41 40 40 39 39 39 39 39 38 38 38 38 38 38 38 38 39 39 40 41 42 44 44 45 46 47 49 50 51 52 53 53 53 52 51 49 46 43 42 42 42
43 42 42 41 41 41 41 40 39 39 38 38 39 39 39 39 40 41 41 42 43 45 46 47 48 50 51 52 52 52 52 50 48 47 46 44 42 40 39 40 41 41
43 43 43 42 41 41 41 40 39 39 39 39 40 41 41 41 41 42 44 45 46 48 49 50 51 52 52 52 50 48 46 43 41 40 39 39 37 36 37 39 40 40
43 43 43 42 41 41 41 41 40 40 40 40 41 42 43 43 44 45 47 48 49 50 52 52 52 51 49 47 44 41 39 37 36 35 34 33 33 33 35 37 37 38
45 45 44 43 43 42 42 42 41 41 42 42 43 44 45 46 47 49 50 51 51 51 51 49 47 44 42 39 37 36 34 33 32 31 30 30 32 33 34 35 36 37
Wind_Direction
194 193 193 191 191 194 197 199 202 199 196 197 203 216 227 231 234 245 262 279 291 298 305 311 316 319 323 325 327 328 330 334 337 338 339 340 341 341 340 339 339 339
197 197 197 196 198 200 202 205 207 206 206 206 211 222 232 241 250 257 265 272 278 284 292 298 303 309 313 317 319 321 324 327 331 333 333 333 334 335 335 334 335 335
201 202 201 201 203 205 206 209 211 212 215 218 222 227 234 242 250 258 262 266 270 276 283 290 296 302 307 311 314 317 320 324 326 327 328 328 328 328 329 330 330 331
205 206 207 208 210 211 212 213 215 219 223 227 231 234 240 246 252 258 261 264 269 274 281 287 293 297 302 306 311 315 318 321 322 323 324 324 324 324 324 326 327 327
208 211 214 215 216 218 219 221 223 226 230 232 236 238 243 249 255 259 264 269 273 277 282 287 291 294 298 303 308 313 316 317 319 320 321 321 321 321 321 323 324 325
212 215 219 221 223 225 226 227 228 231 234 237 239 243 246 251 256 262 267 273 277 281 284 286 290 293 296 301 306 309 312 316 318 319 319 319 319 319 319 321 322 323
216 218 222 225 228 230 231 231 234 236 239 242 246 249 253 256 260 265 270 275 278 281 284 287 290 293 297 301 305 308 311 315 317 318 318 318 317 317 318 319 320 320
220 220 223 226 230 234 236 239 241 244 247 250 253 256 259 262 265 269 274 277 280 282 284 287 290 293 297 301 305 308 311 313 315 316 316 315 314 314 315 316 317 317
224 224 226 230 234 238 242 246 248 250 252 254 257 259 262 265 269 272 275 279 282 284 285 286 289 292 296 301 304 307 309 311 312 312 312 311 311 311 312 313 314 314
226 227 229 232 235 238 241 244 247 250 252 254 257 260 263 266 269 273 276 278 280 282 284 285 287 291 295 299 302 304 306 307 308 308 308 307 307 308 309 310 312 313
226 227 228 230 232 234 236 240 244 248 251 254 257 260 263 265 268 271 275 277 278 279 280 283 285 288 292 295 298 300 302 303 303 304 304 305 305 307 308 309 310 311
225 227 228 229 230 232 235 239 244 247 251 254 257 260 262 265 267 271 273 276 277 278 278 280 282 285 288 291 294 296 298 299 300 302 303 305 306 307 308 309 309 310
226 228 229 231 232 234 238 241 245 248 250 254 257 260 262 265 268 270 272 273 275 276 278 278 280 283 286 288 291 294 296 298 300 302 303 304 305 306 307 307 308 309
228 230 232 233 235 238 240 243 246 249 251 253 256 260 263 265 267 268 271 273 274 275 277 279 281 283 287 290 292 294 296 298 299 301 302 303 304 305 306 306 307 308
231 233 234 236 238 241 243 245 248 251 253 255 258 261 264 267 269 270 272 275 277 278 279 282 284 286 289 291 292 294 295 297 299 301 302 302 303 304 305 305 306 307
232 234 237 239 241 243 245 248 250 253 256 258 260 262 266 270 273 274 275 277 279 280 281 282 284 286 287 289 291 293 296 298 300 301 301 301 302 303 304 305 306 306
233 235 238 240 242 244 246 249 252 254 257 260 263 266 270 273 275 276 277 277 278 278 279 280 282 284 287 289 292 295 297 298 298 298 299 300 301 302 303 304 304 304
235 236 238 240 242 244 246 249 252 255 258 261 266 270 273 273 273 275 277 277 276 277 278 281 283 285 288 290 293 295 296 296 296 297 299 300 301 301 302 302 303 303
237 238 239 241 242 244 246 249 252 256 259 263 268 271 272 271 272 273 275 276 278 279 280 282 285 287 289 291 293 294 294 295 296 298 299 300 300 300 301 302 302 303
240 241 242 243 244 246 248 250 253 257 261 264 267 269 270 271 272 273 274 276 279 280 282 283 286 288 290 291 292 293 294 296 297 298 298 298 298 300 301 302 302 303
242 244 246 248 249 250 251 253 256 259 262 264 266 267 268 270 272 273 274 276 279 281 283 285 287 289 290 292 293 294 295 295 296 296 296 297 298 300 301 302 302 304
244 245 248 250 251 253 254 256 258 260 262 263 265 266 267 269 271 273 276 277 279 282 284 286 288 289 290 292 293 293 294 294 294 295 296 297 299 301 302 303 305 307
245 246 248 249 252 254 255 256 258 259 260 262 264 266 268 270 272 274 276 278 280 282 284 286 288 289 290 291 291 292 292 293 294 296 297 299 302 303 304 306 308 308
246 247 248 249 250 252 254 256 257 258 260 262 264 266 268 270 272 274 276 278 280 282 284 285 287 288 289 290 290 291 292 293 295 296 298 301 303 304 305 307 308 309
247 248 249 250 251 252 254 255 257 259 261 263 265 267 269 271 273 274 276 278 280 282 284 285 286 287 288 289 290 291 292 294 295 296 298 301 302 301 302 305 307 310
248 249 250 252 253 254 255 257 259 261 263 264 266 268 270 272 274 276 278 279 281 282 284 284 285 286 287 288 290 292 295 296 297 297 300 302 302 302 303 306 309 311
Height
11011 11013 11014 11015 11016 11017 11018 11019 11020 11021 11022 11023 11023 11023 11024 11024 11025 11025 11025 11025 11024 11024 11024 11024 11023 11022 11022 11021 11020 11019 11018 11018 11017 11016 11015 11014 11013 11012 11010 11009 11008 11007
11009 11011 11012 11013 11015 11016 11017 11018 11019 11020 11021 11022 11022 11022 11023 11023 11023 11023 11023 11023 11023 11023 11023 11023 11022 11022 11021 11020 11019 11018 11017 11017 11016 11015 11014 11013 11012 11011 11009 11008 11006 11005
11007 11009 11010 11012 11013 11014 11015 11017 11018 11019 11020 11020 11021 11021 11021 11021 11022 11022 11022 11022 11022 11022 11022 11021 11021 11021 11020 11019 11018 11017 11016 11015 11014 11014 11013 11012 11011 11010 11009 11007 11005 11004
11005 11007 11008 11010 11011 11012 11014 11015 11017 11017 11018 11019 11019 11019 11020 11020 11020 11020 11020 11020 11020 11020 11020 11020 11019 11019 11018 11018 11017 11016 11015 11014 11013 11012 11011 11011 11010 11009 11007 11006 11004 11003
11003 11004 11006 11007 11009 11011 11012 11014 11015 11015 11016 11017 11017 11018 11018 11018 11018 11018 11018 11018 11018 11018 11018 11018 11017 11017 11016 11016 11015 11015 11014 11013 11012 11011 11009 11008 11008 11007 11006 11004 11003 11001
11001 11002 11003 11005 11006 11008 11010 11011 11012 11013 11014 11015 11015 11016 11017 11017 11017 11017 11017 11017 11017 11016 11016 11016 11015 11014 11014 11014 11013 11013 11012 11012 11011 11009 11008 11006 11005 11004 11003 11002 11001 11000
10999 11000 11001 11002 11003 11005 11007 11008 11010 11011 11012 11013 11014 11015 11015 11015 11016 11015 11015 11015 11015 11015 11014 11014 11013 11012 11012 11012 11011 11011 11010 11009 11009 11008 11006 11005 11003 11002 11001 11000 10999 10997
10996 10997 10998 10999 11000 11002 11004 11006 11008 11009 11010 11011 11012 11013 11013 11013 11014 11014 11014 11013 11013 11013 11012 11012 11011 11010 11010 11009 11009 11008 11007 11006 11006 11005 11004 11003 11001 10999 10998 10997 10996 10994
10993 10994 10995 10997 10999 11001 11003 11004 11006 11007 11007 11008 11009 11010 11010 11011 11011 11011 11012 11011 11011 11010 11010 11010 11009 11008 11008 11007 11006 11005 11004 11003 11003 11002 11001 11000 10999 10997 10996 10994 10993 10991
10989 10991 10993 10995 10997 10999 11000 11001 11002 11003 11004 11005 11006 11007 11008 11008 11008 11009 11009 11009 11008 11008 11007 11007 11007 11006 11005 11005 11004 11003 11001 11000 10999 10999 10998 10997 10996 10995 10993 10992 10990 10989
10985 10987 10989 10991 10993 10995 10997 10998 10999 10999 11001 11002 11003 11004 11005 11005 11006 11006 11006 11006 11005 11005 11005 11004 11003 11003 11002 11002 11001 11000 10998 10997 10996 10995 10995 10994 10992 10991 10990 10989 10987 10986
10981 10983 10985 10988 10990 10992 10994 10995 10995 10996 10998 10999 11000 11001 11001 11002 11003 11003 11003 11003 11002 11002 11002 11001 11000 11000 10999 10999 10998 10997 10996 10994 10993 10992 10991 10990 10989 10988 10987 10985 10984 10982
10977 10980 10982 10985 10987 10989 10991 10991 10992 10993 10995 10996 10997 10997 10998 10999 10999 10999 10999 11000 10999 10998 10998 10998 10997 10997 10996 10996 10995 10994 10993 10992 10990 10989 10988 10987 10986 10985 10983 10982 10980 10978
10975 10977 10980 10982 10984 10986 10987 10988 10989 10991 10992 10993 10994 10994 10995 10995 10996 10996 10996 10996 10996 10996 10995 10994 10994 10994 10993 10993 10992 10991 10990 10989 10988 10986 10985 10983 10982 10981 10979 10978 10976 10974
10972 10974 10976 10979 10981 10983 10984 10985 10986 10988 10989 10990 10991 10991 10991 10992 10992 10993 10993 10993 10993 10993 10992 10992 10991 10991 10991 10990 10989 10988 10986 10985 10984 10983 10982 10980 10978 10977 10975 10974 10972 10970
10968 10971 10973 10976 10978 10980 10981 10982 10984 10985 10985 10986 10988 10988 10989 10988 10988 10988 10990 10990 10990 10989 10989 10988 10988 10988 10987 10986 10986 10985 10983 10982 10980 10979 10978 10976 10975 10973 10971 10969 10967 10965
10965 10967 10970 10972 10974 10976 10978 10979 10980 10981 10982 10982 10984 10985 10986 10985 10984 10984 10985 10986 10986 10985 10985 10984 10984 10984 10984 10983 10982 10982 10980 10978 10976 10975 10973 10972 10970 10969 10967 10965 10963 10961
10961 10964 10966 10968 10971 10973 10974 10976 10977 10977 10978 10979 10980 10981 10982 10982 10981 10981 10981 10981 10981 10982 10981 10980 10980 10980 10980 10980 10979 10978 10976 10974 10972 10970 10969 10968 10966 10964 10963 10961 10959 10956
10958 10961 10963 10965 10967 10969 10971 10972 10973 10973 10975 10976 10977 10977 10977 10977 10978 10978 10977 10976 10976 10976 10977 10977 10976 10976 10976 10976 10975 10974 10972 10970 10968 10966 10964 10963 10961 10959 10958 10956 10954 10952
10955 10957 10959 10962 10964 10966 10968 10969 10970 10970 10971 10972 10973 10973 10972 10973 10973 10973 10973 10972 10971 10971 10972 10972 10972 10972 10972 10972 10971 10970 10968 10966 10964 10962 10959 10957 10956 10955 10954 10952 10949 10947
10952 10954 10956 10958 10960 10962 10964 10965 10966 10967 10968 10968 10969 10969 10969 10969 10969 10968 10969 10969 10968 10966 10966 10967 10968 10968 10967 10967 10966 10966 10964 10962 10960 10957 10954 10953 10952 10951 10950 10947 10945 10943
10948 10950 10952 10954 10956 10958 10959 10961 10962 10963 10964 10964 10964 10964 10964 10965 10964 10964 10964 10964 10964 10963 10962 10962 10963 10963 10962 10962 10961 10961 10959 10957 10955 10953 10950 10948 10948 10947 10945 10943 10941 10940
10944 10946 10948 10950 10952 10953 10955 10956 10957 10959 10960 10960 10960 10959 10960 10960 10960 10960 10960 10960 10959 10959 10958 10958 10958 10957 10957 10957 10956 10955 10954 10953 10951 10949 10946 10945 10944 10943 10941 10938 10937 10936
10939 10941 10943 10945 10947 10948 10950 10951 10953 10954 10955 10955 10955 10955 10955 10956 10956 10956 10955 10955 10955 10954 10953 10953 10953 10952 10951 10951 10951 10950 10950 10949 10947 10945 10943 10942 10941 10939 10937 10935 10933 10931
10935 10936 10938 10940 10943 10944 10945 10946 10948 10949 10950 10950 10951 10950 10950 10951 10951 10951 10950 10950 10950 10949 10948 10948 10947 10947 10946 10946 10945 10945 10945 10945 10944 10942 10941 10940 10939 10937 10936 10933 10931 10928
10930 10931 10933 10935 10937 10938 10940 10941 10943 10944 10944 10945 10945 10945 10945 10945 10945 10945 10945 10944 10944 10943 10943 10942 10942 10942 10941 10941 10941 10941 10941 10940 10939 10938 10938 10937 10935 10934 10932 10930 10928 10926